Date,TemperatureHighF,TemperatureAvgF,TemperatureLowF,DewpointHighF,DewpointAvgF,DewpointLowF,HumidityHigh,HumidityAvg,HumidityLow,PressureMaxIn,PressureMinIn,WindSpeedMaxMPH,WindSpeedAvgMPH,GustSpeedMaxMPH,PrecipitationSumIn
2013-1-1,33.9,22.5,8.7,18.5,13.3,5.9,89,69,45,30.60,30.32,7,0,7,0.00
2013-1-2,33.7,16.7,4.8,10.9,5.8,-1.0,81,64,34,30.71,30.52,7,0,7,0.00
2013-1-3,32.4,14.1,0.8,7.6,2.2,-3.9,81,61,32,30.89,30.71,6,0,6,0.00
2013-1-4,33.1,12.7,-1.8,4.1,-0.5,-7.8,80,58,27,30.86,30.62,8,0,8,0.00
2013-1-5,41.4,18.4,2.5,11.4,4.4,-2.8,81,58,28,30.87,30.71,8,0,10,0.00
2013-1-6,38.2,17.5,0.4,10.9,5.0,-3.6,84,61,29,30.90,30.60,5,0,5,0.00
2013-1-7,43.3,25.9,13.7,14.2,10.4,6.8,79,54,26,30.60,30.30,9,0,9,0.00
2013-1-8,47.9,28.3,13.0,12.9,8.9,4.1,74,47,22,30.60,30.32,12,1,12,0.00
2013-1-9,47.9,26.5,12.5,15.6,11.3,6.1,78,55,26,30.80,30.51,6,0,6,0.00
2013-1-10,40.4,24.7,9.5,18.2,11.9,5.1,84,60,33,30.53,30.04,6,0,6,0.00
2013-1-11,38.5,28.4,9.5,22.3,5.9,-6.0,58,40,19,30.19,29.84,16,2,16,0.00
2013-1-12,28.7,12.7,-0.9,4.4,-2.6,-7.1,76,52,24,30.48,30.19,10,0,10,0.00
2013-1-13,29.6,11.3,-3.7,4.6,-2.6,-9.4,77,56,32,30.60,30.41,10,0,11,0.00
2013-1-14,30.2,15.4,3.6,15.2,6.0,-3.4,86,67,41,30.52,30.36,12,0,12,0.00
2013-1-15,28.1,13.7,-2.5,6.2,0.8,-6.8,88,59,31,30.82,30.51,13,1,13,0.00
2013-1-16,42.7,20.2,2.3,13.2,4.6,-4.6,74,53,29,30.93,30.69,8,0,8,0.00
2013-1-17,49.5,24.1,5.9,18.5,10.9,2.0,85,60,28,30.98,30.74,6,0,6,0.00
2013-1-18,52.7,27.6,10.0,20.8,13.7,5.8,85,60,28,30.80,30.53,8,0,8,0.00
2013-1-19,52.4,30.1,14.5,17.0,12.7,9.1,83,52,22,30.71,30.55,9,1,9,0.00
2013-1-20,51.3,25.4,7.0,13.5,8.2,2.1,83,54,18,30.69,30.47,4,0,10,0.00
2013-1-21,54.9,27.8,8.1,14.6,9.2,2.9,81,51,19,30.72,30.49,9,0,9,0.00
2013-1-22,60.0,33.3,13.5,14.8,11.2,6.7,75,45,14,30.67,30.46,9,0,9,0.00
2013-1-23,57.2,32.8,12.9,13.2,10.5,6.0,75,44,15,30.70,30.53,9,0,9,0.00
2013-1-24,60.7,36.7,12.9,26.4,15.3,6.5,77,46,18,30.66,30.42,8,0,8,0.00
2013-1-25,58.8,44.9,31.8,37.2,32.4,24.7,84,62,43,30.50,30.25,8,0,8,0.00
2013-1-26,44.7,38.4,28.7,42.4,34.5,25.9,95,86,68,30.31,30.05,10,0,10,0.15
2013-1-27,58.2,46.0,35.6,41.1,36.7,31.7,93,72,37,30.10,29.97,6,1,15,0.02
2013-1-28,51.8,41.5,35.6,39.0,35.5,32.3,95,80,53,30.01,29.83,14,1,14,0.00
2013-1-29,33.4,28.7,22.9,24.5,14.4,7.9,89,57,35,30.21,29.82,10,2,14,0.00
2013-1-30,40.9,29.0,15.9,19.8,13.2,7.5,69,52,33,30.47,30.21,14,1,14,0.00
2013-1-31,52.4,35.7,20.6,24.3,20.3,15.7,83,56,28,30.57,30.41,14,1,14,0.00
2013-2-1,55.4,36.1,17.7,25.1,19.7,14.6,90,56,24,30.53,30.37,12,1,12,0.00
2013-2-2,56.7,35.8,20.1,25.6,19.3,8.1,87,57,15,30.61,30.47,11,0,11,0.00
2013-2-3,46.0,33.8,20.5,23.4,19.8,15.8,83,59,34,30.57,30.23,7,0,7,0.00
2013-2-4,59.1,43.0,27.2,26.3,22.3,15.7,78,47,23,30.30,30.11,13,1,13,0.00
2013-2-5,61.2,40.7,25.3,25.4,18.7,12.8,77,46,15,30.27,30.10,10,1,10,0.00
2013-2-6,59.5,39.2,17.8,26.2,19.9,13.2,83,50,24,30.20,30.02,9,0,9,0.00
2013-2-7,57.7,39.0,22.7,26.8,20.7,14.5,85,52,19,30.33,30.17,7,0,7,0.00
2013-2-8,50.7,39.4,25.2,25.4,22.0,17.6,75,52,34,30.34,29.94,17,2,17,0.00
2013-2-9,48.6,36.0,26.4,24.7,19.6,10.3,81,53,23,29.95,29.69,18,2,18,0.00
2013-2-10,43.2,31.2,22.4,19.0,15.0,11.8,69,52,34,30.21,29.95,11,1,11,0.00
2013-2-11,40.9,30.6,22.7,25.4,16.4,6.4,92,58,25,30.27,30.13,14,1,14,0.00
2013-2-12,41.9,28.3,16.7,21.2,11.9,-0.5,93,55,17,30.44,30.22,14,1,14,0.01
2013-2-13,49.7,32.3,15.1,18.0,12.9,7.4,74,47,24,30.48,30.26,12,1,12,0.00
2013-2-14,52.2,35.4,17.7,20.4,16.9,11.2,78,49,26,30.44,30.24,11,1,11,0.00
2013-2-15,50.4,36.4,23.7,23.4,12.8,4.0,74,41,16,30.60,30.40,12,1,12,0.00
2013-2-16,58.1,37.7,22.2,12.6,9.2,4.8,52,32,15,30.70,30.39,6,0,6,0.00
2013-2-17,60.7,35.4,14.4,14.7,7.2,-0.0,71,37,9,30.41,29.91,10,0,10,0.00
2013-2-18,52.8,36.9,21.7,15.5,3.2,-7.2,49,26,9,30.31,29.97,13,1,13,0.00
2013-2-19,59.1,35.2,11.4,33.3,8.2,-3.4,84,36,13,30.36,29.97,18,1,18,0.00
2013-2-20,47.7,37.3,26.0,35.6,29.6,21.5,95,76,37,29.97,29.59,21,2,21,0.03
2013-2-21,46.2,33.4,23.9,28.0,22.7,17.5,94,66,34,30.09,29.70,14,1,14,0.01
2013-2-22,39.7,29.6,22.0,29.8,22.6,15.8,92,76,52,30.28,30.08,10,0,10,0.02
2013-2-23,50.4,32.8,15.0,17.4,14.2,10.3,83,50,22,30.34,29.93,8,1,8,0.01
2013-2-24,45.6,33.0,25.8,26.9,16.2,3.3,92,55,19,30.08,29.79,18,2,18,0.00
2013-2-25,49.1,33.4,18.3,15.8,11.5,5.2,66,42,18,30.31,30.08,12,1,12,0.01
2013-2-26,45.7,30.0,13.7,17.0,8.2,-9.0,85,46,11,30.35,30.02,22,2,22,0.00
2013-2-27,46.6,29.7,15.0,15.5,8.9,3.1,78,47,18,30.56,30.35,8,0,8,0.00
2013-2-28,52.9,33.2,15.3,10.9,6.8,-0.7,67,38,12,30.63,30.45,12,1,12,0.00
2013-3-1,58.2,39.9,22.8,20.3,14.4,8.9,58,37,20,30.60,30.42,13,1,13,0.00
2013-3-2,65.3,42.6,22.8,23.4,19.7,15.7,76,44,19,30.63,30.34,8,1,8,0.00
2013-3-3,68.5,45.6,23.4,24.6,18.1,7.9,74,39,11,30.36,29.96,14,1,14,0.00
2013-3-4,60.2,49.7,37.7,25.7,21.9,19.0,51,34,22,30.18,29.82,16,1,16,0.00
2013-3-5,63.5,42.1,22.1,21.2,15.9,5.2,73,39,13,30.46,30.18,9,0,9,0.00
2013-3-6,66.3,43.0,28.2,26.0,18.9,14.2,56,40,21,30.35,30.08,14,1,14,0.00
2013-3-7,48.7,45.8,40.8,17.1,16.2,14.9,35,30,27,30.05,30.02,2,0,2,0.00
2013-3-8,62.9,43.3,28.1,38.0,24.7,13.5,93,54,19,30.07,29.82,17,1,17,0.09
2013-3-9,40.4,35.9,31.3,35.3,26.0,17.2,93,69,43,30.17,29.87,13,1,14,0.03
2013-3-10,50.4,37.2,27.4,27.5,22.5,18.5,92,59,31,30.35,30.17,12,1,12,0.00
2013-3-11,62.4,37.6,20.7,25.9,21.4,17.9,90,59,21,30.40,30.16,10,0,11,0.00
2013-3-12,65.0,49.9,27.1,27.4,24.7,21.5,81,41,21,30.37,30.21,9,1,10,0.00
2013-3-13,70.0,48.1,26.1,29.4,25.1,21.0,82,46,19,30.49,30.29,9,0,9,0.00
2013-3-14,75.2,53.7,32.7,27.3,22.1,15.7,69,35,11,30.48,30.23,10,1,10,0.00
2013-3-15,77.5,52.3,27.5,27.5,20.4,11.3,70,35,9,30.32,30.00,11,0,11,0.00
2013-3-16,69.7,52.6,36.6,35.2,24.5,17.5,60,35,18,30.02,29.76,21,2,21,0.00
2013-3-17,65.5,50.5,32.9,35.2,23.5,2.3,85,43,10,29.92,29.70,22,2,22,0.00
2013-3-18,62.4,47.6,29.4,16.3,9.1,-0.7,51,24,9,30.11,29.90,23,2,23,0.00
2013-3-19,57.3,41.3,28.1,20.6,12.2,3.5,51,31,18,30.37,30.10,11,0,11,0.00
2013-3-20,63.4,45.2,22.3,25.0,18.6,12.8,70,38,19,30.45,30.00,13,1,13,0.00
2013-3-21,67.5,51.6,36.3,30.8,19.5,7.4,64,33,10,30.00,29.65,21,2,21,0.00
2013-3-22,62.8,48.6,26.2,23.8,13.0,7.9,51,26,12,29.91,29.70,21,1,21,0.00
2013-3-23,45.0,35.0,21.0,23.9,5.7,-14.0,61,33,10,30.29,29.77,24,3,24,0.00
2013-3-24,50.9,31.4,11.3,12.3,3.8,-1.0,73,37,13,30.43,30.16,17,1,17,0.00
2013-3-25,53.1,34.7,18.7,11.6,6.9,2.4,59,34,14,30.48,30.27,7,1,9,0.00
2013-3-26,53.3,37.6,24.7,13.0,9.0,5.5,46,31,19,30.43,30.10,7,0,7,0.00
2013-3-27,72.5,54.6,32.6,18.7,11.8,5.9,41,20,9,30.18,29.96,11,1,11,0.00
2013-3-28,73.8,55.6,35.6,18.4,12.8,8.4,38,20,9,30.16,29.99,13,1,13,0.00
2013-3-29,72.2,54.2,36.2,25.8,18.7,11.9,42,26,16,30.23,30.06,10,0,10,0.00
2013-3-30,73.5,53.2,29.9,30.0,21.8,17.0,64,34,14,30.29,30.00,13,1,13,0.00
2013-3-31,72.2,54.7,33.5,34.0,24.2,17.0,54,32,17,30.18,29.94,13,1,13,0.00
2013-4-1,74.7,56.4,37.1,28.7,17.4,5.5,46,25,7,30.09,29.84,12,1,13,0.00
2013-4-2,67.3,52.4,39.9,29.9,21.3,8.2,61,32,10,30.04,29.80,18,1,21,0.00
2013-4-3,64.1,48.8,31.3,31.1,28.1,23.9,79,48,24,30.23,30.04,13,1,13,0.00
2013-4-4,74.2,53.0,31.8,28.0,21.2,12.0,68,35,12,30.35,30.09,12,1,12,0.00
2013-4-5,77.0,56.4,35.9,23.7,16.6,12.9,40,23,9,30.17,29.81,17,1,17,0.00
2013-4-6,73.3,58.0,39.3,29.3,22.8,18.4,45,27,13,29.98,29.77,11,1,11,0.00
2013-4-7,74.5,58.9,39.9,28.9,21.9,15.8,49,26,12,29.87,29.67,16,1,17,0.00
2013-4-8,75.0,57.5,35.4,31.2,21.4,15.1,46,27,12,29.73,29.32,20,2,21,0.00
2013-4-9,53.1,44.8,36.0,38.0,31.3,27.5,81,60,38,29.94,29.36,18,2,18,0.01
2013-4-10,50.1,40.1,33.2,34.8,26.3,20.4,86,60,35,30.11,29.93,14,1,14,0.01
2013-4-11,65.0,45.5,26.3,35.0,25.7,18.5,74,49,25,30.14,29.92,17,1,17,0.00
2013-4-12,68.2,52.1,37.3,34.3,28.1,18.5,79,45,19,30.02,29.84,9,1,9,0.00
2013-4-13,73.3,55.1,32.4,27.0,20.6,13.4,60,30,12,30.00,29.65,17,1,17,0.00
2013-4-14,72.4,61.2,50.6,28.0,24.9,22.1,34,25,17,29.67,29.51,18,2,18,0.00
2013-4-15,77.5,62.2,45.6,27.2,22.6,15.4,41,24,10,29.71,29.48,22,2,22,0.00
2013-4-16,79.0,64.9,49.4,26.5,17.2,6.0,29,17,7,29.75,29.48,23,3,23,0.00
2013-4-17,61.4,47.4,35.7,33.0,22.2,5.8,81,42,12,29.97,29.58,19,1,19,0.00
2013-4-18,46.4,36.4,27.3,16.8,11.0,1.4,59,36,16,30.42,29.97,17,1,17,0.00
2013-4-19,62.2,42.9,22.1,12.0,5.8,0.9,50,25,10,30.54,30.15,11,1,11,0.00
2013-4-20,66.8,50.9,31.6,22.1,12.9,1.6,41,23,8,30.16,29.89,18,1,18,0.00
2013-4-21,72.7,52.2,30.8,27.4,18.2,7.7,59,31,9,30.24,30.00,14,1,14,0.00
2013-4-22,79.0,58.8,31.7,21.5,15.8,10.2,44,22,9,30.09,29.76,20,2,20,0.00
2013-4-23,63.2,51.1,38.2,32.4,19.6,-14.2,60,34,5,30.19,29.77,23,2,23,0.00
2013-4-24,68.8,47.6,26.1,22.6,16.7,9.1,71,37,10,30.35,30.11,11,1,11,0.00
2013-4-25,70.5,56.6,48.5,37.0,27.4,10.8,49,33,20,30.21,29.86,15,2,15,0.00
2013-4-26,73.0,56.5,41.8,38.5,31.9,18.3,79,43,14,30.25,30.01,19,1,19,0.00
2013-4-27,77.2,55.0,31.4,32.2,23.7,16.1,73,36,12,30.35,30.07,13,1,13,0.00
2013-4-28,81.6,59.6,34.9,25.0,16.0,9.4,47,22,7,30.17,29.84,10,0,10,0.00
2013-4-29,85.0,62.2,37.2,25.1,16.8,10.7,41,20,7,29.96,29.66,15,1,15,0.00
2013-4-30,85.2,64.7,38.7,26.8,17.3,10.7,40,19,7,29.83,29.63,19,1,19,0.00
2013-5-1,80.3,67.7,49.5,30.5,19.5,-4.3,33,16,8,30.12,29.71,17,2,17,0.00
2013-5-2,63.4,48.1,32.3,15.6,11.2,1.8,42,25,9,30.51,30.12,14,1,14,0.00
2013-5-3,70.3,50.0,26.3,17.9,13.5,9.0,55,26,11,30.52,30.06,10,1,10,0.00
2013-5-4,76.3,57.6,31.5,18.2,12.6,6.6,43,19,8,30.12,29.88,17,1,17,0.00
2013-5-5,72.0,59.1,49.3,34.0,21.8,12.4,41,24,16,30.12,29.95,17,2,17,0.00
2013-5-6,67.2,55.1,41.7,40.2,29.9,18.3,56,39,23,30.05,29.93,19,1,19,0.00
2013-5-7,75.5,58.1,38.6,38.6,32.7,24.8,77,43,17,30.10,29.88,19,1,19,0.00
2013-5-8,70.3,57.5,41.4,40.2,28.8,15.0,81,40,13,30.02,29.90,14,1,14,0.00
2013-5-9,67.3,54.0,38.0,35.7,28.3,22.1,54,38,23,30.14,30.02,14,1,14,0.00
2013-5-10,71.3,55.7,39.9,42.8,34.3,28.1,71,47,21,30.32,30.10,16,1,16,0.00
2013-5-11,76.2,56.6,37.5,40.9,35.2,27.9,90,51,18,30.39,30.26,15,1,15,0.00
2013-5-12,82.1,61.5,40.0,38.6,32.1,25.5,68,38,15,30.38,30.09,12,1,12,0.00
2013-5-13,69.8,50.6,41.2,34.3,30.9,28.1,62,48,26,30.28,30.19,5,0,5,0.00
2013-6-27,97.1,86.4,74.9,40.0,36.3,33.3,28,18,11,29.92,29.82,10,1,11,0.00
2013-6-28,98.5,76.4,61.7,59.2,48.9,35.4,80,42,16,30.08,29.87,18,1,18,0.04
2013-6-29,94.5,73.0,54.0,54.9,49.0,38.1,91,50,15,30.11,29.91,14,0,14,0.00
2013-6-30,92.5,73.7,56.3,54.8,47.8,39.4,71,43,19,30.05,29.82,20,1,20,0.00
2013-7-1,91.0,70.6,52.8,55.2,50.7,41.5,88,55,18,30.14,29.91,7,1,12,0.00
2013-7-2,86.3,70.6,58.4,56.2,51.1,45.9,80,53,26,30.14,29.87,12,1,13,0.01
2013-7-3,92.3,71.0,56.1,55.8,51.6,41.8,86,56,19,30.06,29.75,8,0,8,0.00
2013-7-4,95.2,76.2,58.4,50.7,45.4,31.0,69,38,11,29.89,29.68,14,1,14,0.00
2013-7-5,92.0,72.8,62.1,62.9,56.3,47.2,92,62,26,29.87,29.64,15,1,15,0.30
2013-7-6,94.0,73.1,59.9,61.6,56.8,50.2,96,62,24,29.92,29.73,16,1,20,0.00
2013-7-7,91.7,76.4,60.5,60.2,56.0,49.9,91,54,26,29.93,29.76,12,1,12,0.00
2013-7-8,93.3,76.7,64.2,61.5,56.5,45.8,89,53,23,29.99,29.85,11,1,16,0.02
2013-7-9,96.8,76.4,64.2,59.8,56.5,49.4,79,53,22,30.03,29.88,18,1,18,0.00
2013-7-10,90.7,70.8,61.7,57.6,54.1,48.9,80,58,24,30.05,29.87,14,0,14,0.00
2013-7-11,91.5,77.8,60.1,60.7,55.3,48.5,83,50,24,30.01,29.77,10,1,10,0.00
2013-7-12,89.3,74.4,59.7,59.3,55.4,49.1,87,55,27,29.92,29.79,14,1,14,0.00
2013-7-13,94.8,75.7,60.3,62.3,54.9,50.0,83,53,24,30.00,29.81,15,1,15,0.08
2013-7-14,97.3,77.0,63.2,62.4,56.6,44.6,87,55,18,29.95,29.71,12,1,12,0.00
2013-7-15,73.8,67.6,63.3,60.0,56.6,50.9,86,68,56,30.07,29.89,9,1,10,0.00
2013-7-16,84.8,68.5,59.3,53.0,49.8,44.3,74,54,27,30.16,30.00,13,1,13,0.00
2013-7-17,83.0,69.8,56.5,54.3,51.2,48.6,78,54,33,30.23,30.07,9,1,10,0.00
2013-7-18,90.5,73.7,56.6,55.3,52.5,49.1,79,51,26,30.17,29.88,12,1,12,0.00
2013-7-19,91.0,71.9,58.2,58.9,55.0,51.4,80,58,29,30.01,29.82,15,1,15,0.00
2013-7-20,94.3,74.2,59.8,59.2,55.7,45.8,91,57,20,29.99,29.74,15,1,17,0.00
2013-7-21,93.3,72.2,61.4,61.5,55.7,46.7,88,60,25,29.92,29.73,24,1,24,0.00
2013-7-22,96.7,75.5,56.9,58.8,52.4,36.7,95,53,14,29.95,29.78,10,0,10,0.00
2013-7-23,96.0,76.5,64.7,58.1,52.6,43.1,70,46,17,29.92,29.78,12,0,12,0.00
2013-7-24,96.2,75.3,58.9,57.0,51.0,40.3,79,49,16,29.96,29.82,15,1,15,0.00
2013-7-28,67.0,63.1,61.4,63.6,61.3,59.9,97,94,85,29.93,29.82,3,0,11,0.30
2013-7-29,88.4,71.5,55.1,62.2,55.0,45.3,98,64,23,30.03,29.92,10,1,10,0.00
2013-7-30,93.2,75.1,59.1,55.3,51.9,47.7,78,48,23,30.15,29.97,6,0,8,0.00
2013-7-31,97.3,76.6,54.8,53.2,48.6,39.6,81,43,15,30.16,29.92,12,1,13,0.00
2013-8-1,87.8,73.9,64.1,61.1,56.9,50.8,89,57,34,30.04,29.86,15,1,15,0.01
2013-8-2,86.8,72.2,60.0,63.4,58.7,51.0,96,67,34,30.06,29.86,13,0,13,0.02
2013-8-3,91.5,74.7,58.2,61.9,56.9,50.7,96,60,27,30.04,29.86,11,0,11,0.02
2013-8-4,90.8,75.3,61.9,60.7,55.3,47.5,92,53,25,30.08,29.84,13,1,13,0.12
2013-8-5,90.2,72.6,60.3,61.9,56.9,47.0,94,63,30,30.05,29.84,14,1,18,0.00
2013-8-6,89.5,72.0,63.4,59.5,55.7,49.8,81,59,28,29.96,29.81,15,1,15,0.09
2013-8-7,85.0,70.0,57.7,59.0,55.7,53.7,89,63,36,29.97,29.85,11,1,11,0.00
2013-8-8,83.8,68.5,58.4,62.4,53.3,48.6,84,60,36,30.04,29.87,15,1,15,0.01
2013-8-9,83.7,67.5,50.4,52.9,48.1,40.6,89,54,25,30.14,30.00,15,0,15,0.00
2013-8-10,88.0,68.6,58.5,56.0,51.8,45.1,84,58,24,30.22,30.00,15,1,15,0.10
2013-8-11,85.5,69.4,53.4,55.2,51.4,45.9,92,57,28,30.19,29.97,8,0,8,0.00
2013-8-12,83.8,71.1,62.6,64.0,55.7,52.0,80,60,38,30.08,29.92,11,1,11,0.17
2013-8-13,87.5,70.2,55.4,59.5,53.2,44.6,88,59,24,30.11,29.96,16,0,16,0.00
2013-8-14,89.5,71.7,54.9,61.7,51.0,41.0,84,53,20,30.12,29.92,9,0,9,0.00
2013-8-15,93.9,74.0,53.7,57.0,48.1,36.2,86,46,14,30.10,29.90,9,0,11,0.00
2013-8-16,95.3,77.8,57.4,53.0,44.8,31.3,75,36,12,30.06,29.86,9,0,9,0.00
2013-8-17,94.3,77.7,56.2,51.5,44.8,38.6,67,34,17,30.04,29.80,9,0,9,0.00
2013-8-18,93.3,75.9,59.3,54.1,48.9,41.1,70,41,22,30.00,29.86,21,1,21,0.00
2013-8-19,93.3,75.3,58.0,58.2,52.0,46.9,83,48,22,30.02,29.83,8,0,8,0.01
2013-8-20,93.5,73.0,56.4,57.4,53.4,47.7,83,54,22,29.99,29.84,12,0,12,0.00
2013-8-21,92.1,75.1,56.9,57.2,53.1,48.2,80,50,25,30.03,29.85,13,1,14,0.01
2013-8-22,94.1,74.3,59.0,60.4,54.3,47.3,79,52,23,30.03,29.85,8,0,12,0.00
2013-8-23,90.3,71.0,50.2,53.2,47.9,40.5,82,49,20,30.07,29.86,16,1,16,0.00
2013-8-24,88.7,72.7,61.8,56.2,52.1,47.4,68,50,26,30.04,29.88,23,1,23,0.00
2013-8-25,86.0,73.2,62.5,58.9,55.6,52.3,80,56,36,30.11,30.00,11,0,11,0.00
2013-8-26,91.7,74.1,57.4,58.3,54.4,48.6,90,55,25,30.15,29.95,15,1,15,0.00
2013-8-27,91.5,74.7,56.1,55.4,50.6,44.5,79,46,26,30.06,29.84,10,0,10,0.00
2013-8-28,92.0,75.4,55.3,54.9,50.1,44.8,76,44,21,30.02,29.86,9,1,9,0.00
2013-8-29,93.4,77.1,62.4,55.5,51.9,47.6,67,43,22,30.06,29.88,12,1,12,0.00
2013-8-30,96.2,75.8,58.6,61.8,53.2,48.7,75,48,22,30.06,29.83,10,1,10,0.01
2013-8-31,96.0,75.2,55.7,56.4,52.1,42.1,86,50,18,29.99,29.78,11,0,11,0.00
2013-9-1,94.5,75.7,62.9,58.6,53.0,46.9,76,48,22,30.00,29.82,12,1,12,0.00
2013-9-2,92.7,76.2,63.5,58.3,54.8,49.5,74,50,25,30.04,29.84,13,0,13,0.00
2013-9-3,93.5,73.2,58.0,58.3,54.5,46.3,84,55,25,30.06,29.90,15,0,15,0.00
2013-9-4,94.0,74.0,54.8,54.9,48.9,38.0,84,47,22,30.14,29.95,14,0,14,0.00
2013-9-5,92.5,74.7,53.8,48.4,42.0,37.1,64,34,17,30.14,29.96,9,1,9,0.00
2013-9-6,92.8,73.8,53.3,45.2,39.9,34.5,60,32,16,30.14,29.88,7,0,7,0.00
2013-9-7,92.2,75.6,55.1,52.7,46.1,39.3,69,38,20,30.05,29.83,11,1,11,0.00
2013-9-8,90.6,74.0,54.3,50.9,47.0,43.0,73,41,20,29.97,29.73,13,1,13,0.00
2013-9-9,89.1,73.1,54.8,54.1,48.7,43.5,79,45,25,29.88,29.68,12,1,14,0.00
2013-9-10,74.8,64.5,57.8,63.2,56.5,50.0,96,76,50,30.04,29.82,7,0,7,0.36
2013-9-11,81.2,67.4,59.4,62.9,59.2,56.0,97,78,44,30.10,29.94,8,0,8,0.34
2013-9-12,68.3,62.8,56.8,61.9,58.9,54.8,96,87,73,30.09,30.00,4,0,4,0.16
2013-9-13,66.8,60.0,55.7,60.7,57.2,53.0,97,91,73,30.11,29.98,6,0,6,0.95
2013-9-14,73.8,63.3,57.0,60.3,56.3,51.4,97,79,54,30.04,29.89,13,1,13,0.26
2013-9-15,77.3,64.9,54.9,59.4,55.4,52.7,94,74,43,30.13,30.00,11,0,11,0.39
2013-9-16,78.0,63.4,52.5,60.1,55.6,50.3,98,78,46,30.20,30.03,9,0,9,0.00
2013-9-17,80.3,66.1,52.3,60.5,55.1,51.2,97,71,41,30.13,29.88,9,0,9,0.00
2013-9-18,81.0,63.8,58.5,62.2,58.1,52.2,97,83,44,29.93,29.82,10,0,12,0.21
2013-9-19,83.7,65.1,53.0,60.3,54.0,45.3,97,72,30,30.02,29.86,5,0,5,0.01
2013-9-20,81.2,62.7,46.2,56.4,50.1,41.7,95,67,29,30.11,29.94,7,0,7,0.00
2013-9-21,78.8,64.6,50.8,58.6,53.5,49.4,97,70,44,30.08,29.83,11,0,11,0.00
2013-9-22,79.1,63.5,49.5,56.8,51.8,46.3,93,68,36,29.90,29.53,14,1,14,0.46
2013-9-23,70.3,57.0,42.3,47.0,42.1,37.6,93,61,32,30.15,29.73,11,1,11,0.00
2013-9-24,79.0,59.4,43.6,45.6,40.4,28.8,85,54,21,30.24,30.00,7,0,7,0.00
2013-9-25,80.3,61.2,41.4,48.5,43.5,39.3,95,58,27,30.02,29.70,6,0,14,0.00
2013-9-26,79.5,63.8,42.9,47.1,41.2,33.5,94,50,20,29.85,29.68,13,1,15,0.00
2013-9-27,71.3,56.1,44.6,50.7,42.8,32.6,80,62,42,30.11,29.71,11,1,11,0.01
2013-9-28,71.8,50.3,35.4,37.1,31.4,20.5,87,55,15,30.33,30.11,8,0,8,0.00
2013-9-29,79.6,53.1,32.5,41.9,33.2,27.9,93,55,18,30.37,30.10,6,0,6,0.00
2013-9-30,83.3,57.3,36.6,39.4,34.9,30.2,86,51,17,30.17,29.91,4,0,10,0.00
2013-10-1,84.1,61.1,41.2,41.3,36.7,31.4,76,45,19,30.08,29.89,6,0,6,0.00
2013-10-2,81.7,57.0,36.0,38.6,33.1,22.7,87,48,13,30.09,29.89,8,0,8,0.00
2013-10-3,78.3,56.4,35.6,38.5,32.0,26.3,83,46,15,30.01,29.76,7,0,11,0.00
2013-10-4,65.3,54.0,46.2,34.8,20.7,6.3,60,31,11,30.19,29.83,15,1,15,0.00
2013-10-5,64.8,49.4,33.2,27.6,21.1,17.0,57,34,18,30.37,30.19,10,0,10,0.00
2013-10-6,75.7,51.5,33.7,28.1,22.7,8.0,68,38,10,30.45,30.27,8,0,8,0.00
2013-10-7,78.2,52.2,29.5,32.7,25.3,21.2,79,41,14,30.41,30.14,10,0,10,0.00
2013-10-8,77.3,55.6,36.4,36.7,29.9,24.5,71,41,18,30.18,29.86,18,0,18,0.00
2013-10-9,75.0,56.0,36.3,44.1,34.0,23.6,80,49,15,30.01,29.88,11,0,11,0.00
2013-10-10,67.9,50.2,37.9,46.9,38.3,28.0,89,66,30,30.04,29.67,28,1,28,0.09
2013-10-11,60.2,44.3,29.2,38.4,33.3,27.7,95,68,40,30.25,30.04,12,1,12,0.00
2013-10-12,68.0,47.9,30.0,39.4,34.6,28.3,96,65,27,30.35,30.17,15,0,15,0.00
2013-10-13,73.5,54.8,36.8,50.2,42.1,34.7,94,66,34,30.30,29.97,18,1,18,0.01
2013-10-14,66.6,54.9,39.0,50.2,34.4,18.1,95,53,17,30.12,29.95,10,1,10,0.00
2013-10-15,62.9,45.5,28.5,38.1,30.7,24.9,88,60,32,30.25,30.08,11,1,11,0.03
2013-10-16,59.4,45.8,36.6,38.3,32.0,18.8,87,62,26,30.26,30.13,10,1,10,0.02
2013-10-17,65.5,44.1,27.7,30.4,26.7,21.1,90,56,20,30.32,30.07,6,0,6,0.00
2013-10-18,63.4,42.6,24.9,30.1,24.2,18.3,88,55,20,30.36,30.14,11,0,11,0.00
2013-10-19,66.3,43.0,24.8,29.6,25.3,19.5,94,57,18,30.40,30.17,7,0,7,0.00
2013-10-20,68.9,47.2,26.2,28.1,23.4,16.2,84,47,16,30.23,29.99,7,0,7,0.00
2013-10-21,64.8,49.9,36.3,34.3,30.3,25.4,72,49,25,30.28,30.09,10,0,10,0.00
2013-10-22,71.2,46.1,28.6,31.0,25.8,17.9,84,52,14,30.45,30.26,7,0,7,0.00
2013-10-23,73.8,47.5,25.9,29.2,25.5,21.2,84,49,16,30.42,30.18,5,0,5,0.00
2013-10-24,74.8,51.4,27.6,40.4,28.7,23.1,85,47,20,30.39,30.17,14,0,14,0.00
2013-10-25,63.4,52.3,46.6,49.5,45.6,39.7,96,79,54,30.37,30.11,13,0,14,0.19
2013-10-26,68.1,51.9,40.1,44.9,39.6,33.3,94,67,30,30.38,30.25,9,0,9,0.00
2013-10-27,68.0,48.2,32.1,40.8,36.7,30.8,97,69,35,30.33,30.01,10,0,10,0.00
2013-10-28,66.8,48.1,36.1,42.8,34.2,25.4,92,64,22,30.08,29.94,13,0,13,0.00
2013-10-29,67.8,52.2,34.0,35.5,30.1,24.9,82,49,21,30.15,29.88,17,1,17,0.00
2013-10-30,59.9,45.9,36.1,41.0,35.6,26.2,93,71,30,30.03,29.84,22,1,22,0.08
2013-10-31,53.6,43.2,34.8,32.2,28.9,25.7,82,59,36,30.23,30.03,13,1,13,0.00
2013-11-1,57.4,40.4,27.7,29.7,27.5,24.2,89,62,30,30.43,30.19,8,0,8,0.00
2013-11-2,65.0,43.4,25.8,31.1,27.1,22.8,92,58,22,30.53,30.19,7,0,7,0.00
2013-11-3,67.0,47.7,35.7,37.2,30.9,25.8,73,54,28,30.20,29.82,12,0,12,0.00
2013-11-4,63.7,45.2,26.3,42.1,31.6,23.2,93,64,27,30.10,29.90,13,1,13,0.19
2013-11-5,49.7,41.4,30.4,41.3,31.6,15.8,95,70,40,30.40,29.92,15,1,15,0.23
2013-11-6,52.7,36.3,25.8,28.9,22.5,15.8,90,61,30,30.67,30.40,8,0,8,0.00
2013-11-7,62.6,40.4,26.9,30.3,26.8,22.9,91,62,28,30.73,30.46,7,0,7,0.00
2013-11-8,62.6,39.9,23.9,31.7,27.4,21.9,95,66,26,30.47,30.20,6,0,6,0.00
2013-11-9,67.8,42.5,25.7,32.1,27.7,22.5,91,62,22,30.44,30.28,7,0,7,0.00
2013-11-10,67.2,41.1,23.8,29.9,26.2,21.7,93,63,21,30.55,30.36,4,0,4,0.00
2013-11-11,64.4,42.2,31.3,25.7,23.6,19.8,71,50,18,30.59,30.38,1,0,1,0.00
2013-11-12,57.4,38.7,23.7,34.6,28.4,20.8,90,69,38,30.79,30.59,10,0,10,0.00
2013-11-13,59.4,40.7,23.2,36.8,31.1,21.7,96,71,40,30.75,30.33,10,0,10,0.00
2013-11-14,61.3,42.8,29.0,37.1,31.4,27.0,93,68,31,30.34,30.10,7,0,7,0.00
2013-11-15,59.6,48.2,29.8,42.3,35.1,25.7,87,64,31,30.11,29.85,14,1,14,0.02
2013-11-16,54.2,47.8,42.6,42.0,36.5,30.5,87,66,45,29.88,29.73,12,1,12,0.02
2013-11-17,60.1,45.4,30.3,33.8,30.1,24.4,85,57,32,30.31,29.86,14,1,14,0.00
2013-11-18,54.2,37.5,25.5,32.0,27.1,22.5,91,69,40,30.43,30.30,8,0,8,0.00
2013-11-19,61.2,42.9,21.6,36.0,29.9,19.6,94,63,37,30.39,30.06,5,0,5,0.00
2013-11-20,48.7,39.9,30.5,38.8,33.0,26.3,89,77,54,30.11,29.99,8,0,8,0.01
2013-11-21,54.5,44.7,39.4,42.5,39.6,36.7,95,83,60,30.27,30.10,7,0,7,0.17
2013-11-22,41.5,31.5,29.5,39.6,27.9,25.0,93,86,83,30.66,30.27,10,0,10,0.22
2013-11-23,33.9,30.7,25.1,30.1,26.5,22.7,92,84,78,30.73,30.60,9,0,9,0.00
2013-11-24,29.4,23.7,19.2,23.0,19.6,15.4,93,85,65,30.65,30.42,9,0,9,0.00
2013-11-25,43.4,29.4,15.0,29.8,22.6,12.9,94,77,53,30.63,30.41,14,1,14,0.19
2013-11-26,45.9,28.7,15.9,28.8,22.5,14.2,94,80,50,30.76,30.63,5,0,5,0.04
2013-11-27,43.2,28.0,17.5,28.4,21.7,15.8,95,78,54,30.74,30.48,10,1,10,0.00
2013-11-28,46.1,29.7,19.9,28.9,21.4,14.7,94,73,48,30.61,30.48,8,0,8,0.00
2013-11-29,50.8,31.0,17.9,30.8,24.0,16.1,95,78,46,30.70,30.52,3,0,3,0.00
2013-11-30,56.2,33.9,21.0,31.8,24.3,17.9,92,70,36,30.66,30.43,5,0,5,0.00
2013-12-1,49.5,33.7,22.3,30.7,25.1,20.1,92,72,47,30.58,30.42,11,1,13,0.00
2013-12-2,55.3,38.5,26.2,31.0,27.0,23.4,91,65,36,30.46,30.04,17,1,18,0.00
2013-12-3,57.7,41.3,21.6,30.5,23.8,19.9,94,57,26,30.07,29.78,15,1,15,0.00
2013-12-4,56.6,44.5,32.4,30.0,24.2,19.1,73,47,26,29.96,29.58,18,3,18,0.00
2013-12-5,32.3,25.2,15.5,23.8,16.6,9.6,81,70,61,30.28,29.94,13,1,13,0.00
2013-12-6,35.6,22.4,12.5,19.3,13.2,9.2,89,70,42,30.50,30.28,12,0,12,0.00
2013-12-7,27.7,21.7,11.9,24.4,17.5,8.0,91,84,77,30.50,30.17,11,0,11,0.00
2013-12-8,32.0,27.4,22.8,24.7,12.1,0.5,89,54,27,30.30,30.02,15,2,15,0.00
2013-12-9,29.9,22.0,13.3,17.5,7.1,-2.5,91,56,25,30.80,30.30,15,1,15,0.00
2013-12-10,36.4,18.1,6.1,8.0,1.9,-4.6,73,51,25,30.88,30.64,9,1,9,0.00
2013-12-11,41.4,22.1,7.6,11.5,7.3,1.1,80,55,28,30.93,30.72,8,0,8,0.00
2013-12-12,43.0,27.1,12.2,15.2,10.1,4.8,74,50,29,30.93,30.46,10,0,10,0.00
2013-12-13,45.9,32.2,23.2,27.8,20.6,13.7,87,63,42,30.46,30.17,14,1,14,0.02
2013-12-14,46.5,29.7,18.9,19.4,16.2,12.5,84,60,28,30.69,30.35,8,0,9,0.00
2013-12-15,52.2,32.2,15.9,20.5,15.7,10.6,80,53,28,30.71,30.55,11,1,11,0.00
2013-12-16,57.2,35.6,19.5,21.6,18.2,14.0,79,52,24,30.67,30.49,8,1,8,0.00
2013-12-17,55.4,35.1,22.6,20.4,17.8,14.6,75,53,24,30.70,30.51,14,1,14,0.00
2013-12-18,49.1,28.8,14.4,22.0,17.6,11.5,90,66,31,30.57,30.24,5,0,5,0.00
2013-12-19,55.7,33.3,17.6,26.7,20.8,14.4,88,63,32,30.24,29.93,8,0,8,0.00
2013-12-20,52.6,31.5,19.7,25.6,20.8,16.3,90,68,30,30.08,29.86,6,0,6,0.00
2013-12-21,42.7,32.5,20.0,27.7,22.3,17.0,92,68,42,30.07,29.75,16,1,16,0.00
2013-12-22,40.6,30.9,20.4,27.6,22.4,15.6,88,72,45,30.52,30.06,7,0,7,0.00
2013-12-23,46.2,29.0,14.8,18.2,15.2,10.3,83,59,29,30.77,30.52,8,0,8,0.00
2013-12-24,49.4,30.2,15.0,23.8,17.1,10.6,84,61,34,30.72,30.44,10,0,10,0.00
2013-12-25,47.7,30.5,19.4,16.4,9.8,1.2,74,45,16,30.72,30.56,12,1,12,0.00
2013-12-26,49.9,30.0,15.2,12.8,8.7,4.7,66,44,21,30.75,30.53,10,1,10,0.00
2013-12-27,54.1,29.3,14.4,17.5,12.4,7.5,75,53,23,30.75,30.52,7,0,7,0.00
2013-12-28,49.3,28.5,12.1,18.4,14.5,8.2,86,59,29,30.55,30.18,6,0,6,0.00
2013-12-29,42.7,31.1,17.9,24.9,20.4,14.4,86,65,47,30.47,30.26,7,0,7,0.00
2013-12-30,48.6,27.7,14.2,21.5,15.8,11.6,91,65,31,30.69,30.46,9,0,9,0.00
2013-12-31,51.4,27.2,10.7,19.2,14.0,7.6,88,62,27,30.69,30.44,4,0,4,0.00
2014-1-1,53.7,32.2,14.8,23.6,16.2,11.1,86,56,26,30.60,30.35,11,1,11,0.00
2014-1-2,50.9,28.2,12.1,18.7,13.1,7.9,85,57,24,30.70,30.50,6,0,6,0.00